Location: Unnamed
(45.3580°N, 90.2245°W)
Time: 01:01:29
(UTC-06:00)

ISS - Visible Passes

Search period start: 26 February 2021 00:00
Search period end: 08 March 2021 00:00
Orbit: 417 x 422 km, 51.6° (Epoch: 27 February)

Date Brightness Start Highest point End Pass type
(mag) Time Alt. Az. Time Alt. Az. Time Alt. Az.
26 Feb -3.4 04:49:36 59° NNE 04:49:36 59° NNE 04:52:35 10° ENE visible
27 Feb -1.0 04:04:02 19° ENE 04:04:02 19° ENE 04:05:09 10° ENE visible
27 Feb -2.5 05:37:00 18° WNW 05:38:52 31° N 05:41:55 10° NE visible
28 Feb -2.8 04:51:23 36° NNW 04:51:23 36° NNW 04:54:26 10° NE visible
01 Mar -1.2 04:05:43 20° NE 04:05:43 20° NE 04:06:58 10° NE visible
01 Mar -2.2 05:38:41 13° NW 05:41:02 27° N 05:43:58 10° ENE visible
02 Mar -2.4 04:52:59 27° NNW 04:53:24 28° N 04:56:22 10° NE visible
03 Mar -1.3 04:07:17 21° NE 04:07:17 21° NE 04:08:48 10° NE visible
03 Mar -2.3 05:40:14 11° NW 05:43:10 30° N 05:46:11 10° ENE visible
04 Mar -2.2 04:54:32 23° NNW 04:55:30 27° N 04:58:27 10° ENE visible
05 Mar -1.5 04:08:50 23° NNE 04:08:50 23° NNE 04:10:46 10° ENE visible
05 Mar -2.8 05:41:57 10° NW 05:45:11 43° NNE 05:48:25 10° E visible
06 Mar -2.4 04:56:06 23° NNW 04:57:33 34° NNE 05:00:40 10° E visible
07 Mar -1.9 04:10:27 28° NNE 04:10:27 28° NNE 04:12:54 10° ENE visible
07 Mar -3.7 05:43:38 10° WNW 05:47:00 85° NNE 05:50:22 10° ESE visible
